Date String (YYYY-MM-DD hh:mm:ss) UTC,Instrument flags,absolute air pressure of the measurement (hPa),sample flow rate (lpm),inlet stack bypass flow (lpm),air temperature of the measurement (°C),ambient temperature measured by the external sensor (°C),aerosol sample conditioner tube jacket temperature (°C),OPC LED temperature (°C),internal box temperature (°C),relative humidity of the measurement (%),span deviation,mass concentration of particles derived from Lorenz-Mie calculation of OPC scattering (μg/m³),mass concentration of particles derived from Lorenz-Mie calculation of OPC scattering (μg/m³),mass concentration of particles derived from Lorenz-Mie calculation of OPC scattering (μg/m³)
DateTimeUTC,F1_M11,P_M11,Q1_M11,Q2_M11,T1_M11,T2_M11,T3_M11,T4_M11,T5_M11,U1_M11,ZSPAN_M11,X2_M11,X0_M11,X1_M11
2023-12-21 13:00:00,SystemResetWarning,0831.2,5.00,000.00,023.2,022.4,000.0,031.6,024.6,14.2,0000.0,0002.89,0007.45,0002.23
2023-12-21 13:01:00,SystemResetWarning,0831.2,5.00,000.00,023.2,022.4,000.0,031.6,024.6,14.2,0000.0,0002.92,0007.37,0002.26
2023-12-21 13:02:00,SystemResetWarning,0831.3,5.00,000.00,023.2,022.4,000.0,031.6,024.6,14.2,0000.0,0002.95,0007.34,0002.29
2023-12-21 13:03:00,SystemResetWarning,0831.2,5.00,000.00,023.2,022.4,000.0,031.6,024.6,14.2,0000.0,0003.06,0006.21,0002.34
2023-12-21 13:04:00,SystemResetWarning,0831.2,5.00,000.00,023.2,022.4,000.0,031.6,024.6,14.2,0000.0,0003.01,0004.86,0002.35
2023-12-21 13:05:00,SystemResetWarning,0831.3,5.00,000.00,023.2,022.4,000.0,031.6,024.6,14.2,0000.0,0002.98,0004.80,0002.36
2023-12-21 13:06:00,SystemResetWarning,0831.3,5.00,000.00,023.2,022.4,000.0,031.5,024.6,14.2,0000.0,0003.05,0005.10,0002.39
2023-12-21 13:07:00,SystemResetWarning,0831.3,4.99,000.00,023.2,022.4,000.0,031.5,024.6,14.2,0000.0,0003.11,0005.28,0002.39
2023-12-21 13:08:00,SystemResetWarning,0831.3,5.00,000.00,023.2,022.4,000.0,031.6,024.6,14.2,0000.0,0003.12,0005.22,0002.41
2023-12-21 13:09:00,SystemResetWarning,0831.3,4.99,000.00,023.2,022.4,000.0,031.5,024.6,14.2,0000.0,0003.11,0004.94,0002.44
2023-12-21 13:10:00,SystemResetWarning,0831.3,5.00,000.00,023.2,022.4,000.0,031.5,024.6,14.2,0000.0,0003.11,0004.97,0002.47
2023-12-21 13:11:00,SystemResetWarning,0831.3,5.00,000.00,023.3,022.4,000.0,031.5,024.6,14.1,0000.0,0003.12,0005.18,0002.47
2023-12-21 13:12:00,SystemResetWarning,0831.3,5.01,000.00,023.3,022.4,000.0,031.5,024.7,14.1,0000.0,0003.12,0005.16,0002.47
2023-12-21 13:13:00,SystemResetWarning,0831.3,5.00,000.00,023.3,022.4,000.0,031.5,024.7,14.1,0000.0,0003.15,0005.28,0002.47
2023-12-21 13:14:00,SystemResetWarning,0831.3,5.00,000.00,023.3,022.4,000.0,031.6,024.7,14.1,0000.0,0003.14,0005.32,0002.46
2023-12-21 13:15:00,SystemResetWarning,0831.3,5.01,000.00,023.3,022.4,000.0,031.6,024.7,14.1,0000.0,0003.13,0006.97,0002.45
2023-12-21 13:16:00,SystemResetWarning,0831.3,4.99,000.00,023.3,022.4,000.0,031.6,024.7,14.1,0000.0,0003.12,0007.56,0002.42
2023-12-21 13:17:00,SystemResetWarning,0831.3,5.00,000.00,023.3,022.4,000.0,031.6,024.7,14.1,0000.0,0003.09,0007.50,0002.39
2023-12-21 13:18:00,SystemResetWarning,0831.3,5.00,000.00,023.3,022.4,000.0,031.6,024.8,14.1,0000.0,0003.03,0007.39,0002.37
2023-12-21 13:19:00,SystemResetWarning,0831.3,5.00,000.00,023.3,022.4,000.0,031.6,024.7,14.1,0000.0,0003.05,0007.37,0002.37
2023-12-21 13:20:00,SystemResetWarning,0831.3,5.00,000.00,023.3,022.4,000.0,031.6,024.7,14.1,0000.0,0003.07,0007.48,0002.35
2023-12-21 13:21:00,SystemResetWarning,0831.3,5.00,000.00,023.3,022.4,000.0,031.6,024.8,14.1,0000.0,0003.06,0007.50,0002.31
2023-12-21 13:22:00,SystemResetWarning,0831.3,5.00,000.00,023.3,022.4,000.0,031.6,024.8,14.1,0000.0,0003.04,0007.90,0002.30
2023-12-21 13:23:00,SystemResetWarning,0831.3,5.00,000.00,023.3,022.4,000.0,031.6,024.8,14.1,0000.0,0003.04,0009.03,0002.29
2023-12-21 13:24:00,SystemResetWarning,0831.3,5.00,000.00,023.3,022.4,000.0,031.6,024.8,14.1,0000.0,0003.03,0009.07,0002.29
2023-12-21 13:25:00,SystemResetWarning,0831.3,5.01,000.00,023.3,022.4,000.0,031.6,024.8,14.1,0000.0,0003.06,0009.49,0002.31
2023-12-21 13:26:00,SystemResetWarning,0831.3,5.00,000.00,023.3,022.4,000.0,031.6,024.8,14.1,0000.0,0003.08,0008.79,0002.32
2023-12-21 13:27:00,SystemResetWarning,0831.3,5.00,000.00,023.3,022.5,000.0,031.6,024.8,14.1,0000.0,0003.12,0008.33,0002.35
2023-12-21 13:28:00,SystemResetWarning,0831.3,5.00,000.00,023.3,022.5,000.0,031.6,024.8,14.1,0000.0,0003.13,0008.29,0002.36
2023-12-21 13:29:00,SystemResetWarning,0831.3,5.00,000.00,023.3,022.5,000.0,031.6,024.8,14.2,0000.0,0003.12,0008.50,0002.36
2023-12-21 13:30:00,SystemResetWarning,0831.3,5.00,000.00,023.3,022.5,000.0,031.6,024.8,14.2,0000.0,0003.10,0008.53,0002.36
2023-12-21 13:31:00,SystemResetWarning,0831.3,5.00,000.00,023.3,022.5,000.0,031.6,024.8,14.2,0000.0,0003.09,0008.46,0002.37
2023-12-21 13:32:00,SystemResetWarning,0831.3,4.99,000.00,023.3,022.5,000.0,031.6,024.7,14.2,0000.0,0003.09,0008.41,0002.40
2023-12-21 13:33:00,SystemResetWarning,0831.3,4.99,000.00,023.3,022.5,000.0,031.6,024.7,14.2,0000.0,0003.11,0008.55,0002.44
2023-12-21 13:34:00,SystemResetWarning,0831.3,4.99,000.00,023.3,022.5,000.0,031.6,024.6,14.2,0000.0,0003.12,0007.73,0002.47
2023-12-21 13:35:00,SystemResetWarning,0831.3,5.00,000.00,023.3,022.5,000.0,031.6,024.7,14.2,0000.0,0003.12,0007.67,0002.51
2023-12-21 13:36:00,SystemResetWarning,0831.3,5.00,000.00,023.3,022.5,000.0,031.6,024.7,14.1,0000.0,0003.12,0007.44,0002.55
2023-12-21 13:37:00,SystemResetWarning,0831.3,5.00,000.00,023.3,022.5,000.0,031.6,024.7,14.0,0000.0,0003.17,0007.27,0002.60
2023-12-21 13:38:00,SystemResetWarning,0831.4,5.01,000.00,023.3,022.5,000.0,031.6,024.7,13.9,0000.0,0003.18,0008.30,0002.62
2023-12-21 13:39:00,SystemResetWarning,0831.3,5.01,000.00,023.3,022.5,000.0,031.6,024.7,13.9,0000.0,0003.22,0008.51,0002.67
2023-12-21 13:40:00,SystemResetWarning,0831.4,5.00,000.00,023.3,022.5,000.0,031.6,024.7,13.9,0000.0,0003.25,0009.08,0002.70
2023-12-21 13:41:00,SystemResetWarning,0831.4,4.98,000.00,023.3,022.5,000.0,031.6,024.7,14.1,0000.0,0003.28,0009.02,0002.73
2023-12-21 13:42:00,SystemResetWarning,0831.4,5.01,000.00,023.3,022.5,000.0,031.6,024.7,14.2,0000.0,0003.28,0009.16,0002.71
2023-12-21 13:43:00,SystemResetWarning,0831.4,5.01,000.00,023.3,022.5,000.0,031.6,024.6,14.2,0000.0,0003.26,0009.20,0002.66
2023-12-21 13:44:00,SystemResetWarning,0831.4,5.01,000.00,023.2,022.5,000.0,031.6,024.6,14.2,0000.0,0003.20,0008.90,0002.58
2023-12-21 13:45:00,SystemResetWarning,0831.3,5.00,000.00,023.2,022.4,000.0,031.6,024.6,14.2,0000.0,0003.15,0008.24,0002.50
2023-12-21 13:46:00,SystemResetWarning,0831.4,4.99,000.00,023.2,022.4,000.0,031.6,024.6,14.1,0000.0,0003.10,0008.13,0002.42
2023-12-21 13:47:00,SystemResetWarning,0831.4,4.98,000.00,023.3,022.4,000.0,031.6,024.6,14.2,0000.0,0003.05,0007.89,0002.38
2023-12-21 13:48:00,SystemResetWarning,0831.4,5.00,000.00,023.3,022.5,000.0,031.6,024.7,14.0,0000.0,0002.96,0007.77,0002.33
2023-12-21 13:49:00,SystemResetWarning,0831.4,5.01,000.00,023.3,022.5,000.0,031.6,024.7,13.9,0000.0,0002.89,0006.82,0002.31
2023-12-21 13:50:00,SystemResetWarning,0831.4,5.01,000.00,023.3,022.5,000.0,031.6,024.6,13.9,0000.0,0002.82,0005.74,0002.29
2023-12-21 13:51:00,SystemResetWarning,0831.4,4.99,000.00,023.3,022.5,000.0,031.6,024.6,13.9,0000.0,0002.76,0004.73,0002.27
2023-12-21 13:52:00,SystemResetWarning,0831.4,4.99,000.00,023.2,022.5,000.0,031.6,024.5,14.1,0000.0,0002.70,0004.38,0002.23
2023-12-21 13:53:00,SystemResetWarning,0831.4,5.01,000.00,023.2,022.4,000.0,031.6,024.5,14.2,0000.0,0002.70,0004.23,0002.24
2023-12-21 13:54:00,SystemResetWarning,0831.4,5.00,000.00,023.2,022.4,000.0,031.6,024.5,14.3,0000.0,0002.69,0003.95,0002.24
2023-12-21 13:55:00,SystemResetWarning,0831.4,5.01,000.00,023.2,022.4,000.0,031.6,024.5,14.3,0000.0,0002.70,0003.92,0002.24
2023-12-21 13:56:00,SystemResetWarning,0831.5,5.01,000.00,023.2,022.4,000.0,031.6,024.6,14.2,0000.0,0002.70,0003.89,0002.25
2023-12-21 13:57:00,SystemResetWarning,0831.5,5.00,000.00,023.2,022.4,000.0,031.6,024.6,14.1,0000.0,0002.68,0003.87,0002.24
2023-12-21 13:58:00,SystemResetWarning,0831.5,4.98,000.00,023.2,022.5,000.0,031.6,024.6,14.2,0000.0,0002.69,0004.57,0002.24
2023-12-21 13:59:00,SystemResetWarning,0831.5,5.00,000.00,023.2,022.5,000.0,031.6,024.6,14.2,0000.0,0002.68,0004.85,0002.22
